Regional Weather Roundup
Issued by NWS Cleveland, OH

Home | Current Version | Previous Version | Graphics & Text | Print | Product List | Glossary On
Versions: 1 2 3 4 5 6 7 8 9 10 11 12 13 14 15 16 17 18 19 20 21 22 23 24 25 26 27 28 29 30 31 32 33 34 35 36 37 38 39 40 41 42 43 44 45 46 47 48 49 50
890
ASUS41 KCLE 210410
RWRCLE
OHIO REGIONAL WEATHER ROUNDUP
NATIONAL WEATHER SERVICE CLEVELAND, OH
1100 PM EST TUE FEB 20 2018

NOTE: "FAIR" INDICATES FEW OR NO CLOUDS BELOW 12,000 FEET WITH NO
SIGNIFICANT WEATHER AND/OR OBSTRUCTIONS TO VISIBILITY.

OHZ001>008-015>018-024>027-034-035-043-044-210500-
   NORTHWEST OHIO

CITY           SKY/WX    TMP DP  RH WIND       PRES   REMARKS
DEFIANCE       CLOUDY    55  53  93 S3        30.07R
FINDLAY        FAIR      67  54  63 SW17      30.06R
TOLEDO EXPRESS CLOUDY    58  56  93 CALM      30.06R
TOLEDO EXEC    CLOUDY    60  54  80 NW6       30.06R
LIMA           FAIR      67  56  67 S18       30.06S
$$

OHZ009>014-019>023-028>033-038-089-210500-
   NORTHEAST OHIO

CITY           SKY/WX    TMP DP  RH WIND       PRES   REMARKS
CLE-HOPKINS    MOCLDY    69  54  58 S13       30.11R
CLE-LAKEFRONT  FAIR      70  52  52 S17G23    30.07S
CUY CO. ARPT   PTCLDY    72  54  53 S17       30.09R
LORAIN-ELYRIA  FAIR      67  50  54 SW7G21    30.08S
ASHTABULA      FAIR      67  54  63 S14       30.11S
AKRON-CANTON   FAIR      65  50  58 SW13      30.15R
WOOSTER        FAIR      66  52  60 SW13G21   30.14R
MANSFIELD      FAIR      67  55  65 S22G28    30.12S
YOUNGSTOWN     MOCLDY    65  51  60 S8        30.15R
$$

OHZ042-051>053-060>062-070>072-077>081-210500-
  SOUTHWEST OHIO

CITY           SKY/WX    TMP DP  RH WIND       PRES   REMARKS
CINC-COVINGTON MOCLDY    68  58  70 S12       30.13F
CINC-LUNKEN    MOCLDY    69  57  65 S10       30.14F
HAMILTON       MOCLDY    71  57  61 VRB7G18   30.12F
DAYTON         MOCLDY    67  56  67 S10       30.11F
WRIGHT-PAT AFB FAIR      68  55  64 S15       30.11F
DAYTON GENERAL FAIR      69  55  60 S17       30.11F
WILMINGTON     FAIR      65  57  75 S14       30.15S
$$

OHZ036-037-039>041-045>050-054>059-063>069-073>076-082>088-210500-
  CENTRAL AND SOUTHEAST OHIO

CITY           SKY/WX    TMP DP  RH WIND       PRES   REMARKS
COLUMBUS       MOCLDY    67  54  63 S12       30.14F
OSU AIRPORT    FAIR      68  56  65 S14G23    30.13S
BOLTON FIELD   FAIR      67  55  65 S17G24    30.15F
RICKENBACK AFB FAIR      64  54  68 S13       30.15S
NEWARK         FAIR      68  52  56 S8        30.15S
MARION         FAIR      67  54  63 S18       30.11S
LANCASTER      FAIR      69  53  56 S12       30.17S
ZANESVILLE     FAIR      69  50  50 S10       30.18S
NEW PHILLY     NOT AVBL
$$




USA.gov is the U.S. government's official web portal to all federal, state and local government web resources and services.